Weather History for KDEQ - December, 2012

Change the Weather History Date:

Saturday, December 15, 2012

  Actual Average Record
Temperature  
Mean Temperature 57 °F 43 °F  
Max Temperature 73 °F 55 °F 76 °F (1995)
Min Temperature 41 °F 30 °F 13 °F (1963)
Degree Days  
Heating Degree Days 8 22  
Month to date heating degree days 197 315  
Since 1 July heating degree days 754 841  
Cooling Degree Days 0 0  
Month to date cooling degree days 14 0  
Year to date cooling degree days 2185 1941  
Growing Degree Days 8 (Base 50)    
Moisture  
Dew Point 46 °F    
Average Humidity 63    
Maximum Humidity 100    
Minimum Humidity 25    
Precipitation  
Precipitation T in 0.12 in 4.79 in (1992)
Month to date precipitation 0.02 1.84  
Year to date precipitation 24.71 46.47  
Snow  
Snow 0.00 in - - ()
Month to date snowfall 0.0  
Since 1 July snowfall 0.0  
Snow Depth 0.00 in    
Sea Level Pressure  
Sea Level Pressure 29.84 in    
Wind  
Wind Speed 6 mph (SSW)    
Max Wind Speed 18 mph    
Max Gust Speed 25 mph    
Visibility 5 miles    
Events Fog , Rain    
T = Trace of Precipitation, MM = Missing Value Source: NWS Daily Summary

Daily Weather History Graph

Daily Weather History Graph

Search for Another Location

Airport or City:

Trip Planner

Search our weather history database for the weather conditions in past years. The results will help you decide how hot, cold, wet, or windy it might be!

Date:

Astronomy

Dec. 15, 2012 Rise Set
Actual Time 7:16 AM CST 5:10 PM CST
Civil Twilight 6:48 AM CST 5:37 PM CST
Nautical Twilight 6:17 AM CST 6:09 PM CST
Astronomical Twilight 5:46 AM CST 6:39 PM CST
Moon 9:14 AM CST (12/15) 8:09 PM CST (12/15)
Length of Visible Light 10h 49m
Length of Day
9h 53m
Waxing Crescent, 8% of the Moon is Illuminated
Dec 15
Waxing Crescent
Dec 19
First Quarter
Dec 28
Full
Jan 4
Last Quarter
Jan 11
New

Hourly Weather History & Observations

Time (CST) Temp. Windchill Dew Point Humidity Pressure Visibility Wind Dir Wind Speed Gust Speed Precip Events Conditions
12:53 AM 50.0 °F - 48.0 °F 93% 29.88 in 6.0 mi East 3.5 mph - 0.00 in   Overcast
1:53 AM 52.0 °F - 50.0 °F 93% 29.89 in 6.0 mi North - - N/A   Overcast
2:02 AM 51.1 °F - 48.9 °F 92% 29.90 in 4.0 mi WNW 13.8 mph - 0.00 in Rain Light Rain
2:26 AM 52.0 °F - 50.0 °F 93% 29.88 in 2.5 mi East 3.5 mph - 0.00 in Rain Rain
2:48 AM 51.8 °F - 51.8 °F 100% 29.87 in 3.0 mi ESE 4.6 mph - 0.00 in Rain Light Rain
2:53 AM 52.0 °F - 51.1 °F 97% 29.87 in 3.0 mi East 3.5 mph - 0.00 in   Overcast
3:01 AM 51.1 °F - 50.0 °F 96% 29.86 in 2.0 mi SE 5.8 mph - N/A   Overcast
3:26 AM 52.0 °F - 51.1 °F 97% 29.85 in 3.0 mi East 3.5 mph - 0.00 in   Overcast
3:41 AM 51.1 °F - 50.0 °F 96% 29.84 in 2.5 mi Calm Calm - 0.00 in   Mostly Cloudy
3:53 AM 51.1 °F - 50.0 °F 96% 29.84 in 1.5 mi NNE 3.5 mph - 0.00 in   Mostly Cloudy
4:02 AM 52.0 °F - 50.0 °F 93% 29.84 in 1.8 mi ESE 3.5 mph - N/A   Mostly Cloudy
4:31 AM 51.1 °F - 51.1 °F 100% 29.84 in 1.2 mi Calm Calm - N/A   Overcast
4:53 AM 52.0 °F - 51.1 °F 97% 29.83 in 1.5 mi Calm Calm - N/A   Overcast
5:53 AM 52.0 °F - 51.1 °F 97% 29.85 in 2.0 mi Calm Calm - N/A   Overcast
6:13 AM 52.0 °F - 51.1 °F 97% 29.85 in 1.8 mi SE 3.5 mph - N/A   Overcast
6:22 AM 53.1 °F - 52.0 °F 96% 29.86 in 2.0 mi Calm Calm - N/A   Overcast
6:53 AM 53.1 °F - 51.1 °F 93% 29.86 in 2.5 mi Calm Calm - N/A   Overcast
7:01 AM 52.0 °F - 51.1 °F 97% 29.86 in 3.0 mi Calm Calm - N/A   Overcast
7:11 AM 52.0 °F - 51.1 °F 97% 29.86 in 2.0 mi Calm Calm - N/A   Overcast
7:20 AM 51.1 °F - 51.1 °F 100% 29.86 in 0.8 mi Calm Calm - N/A   Mostly Cloudy
7:29 AM 50.0 °F - 48.9 °F 96% 29.86 in 0.2 mi WNW 3.5 mph - N/A Fog Fog
8:17 AM 52.0 °F - 51.1 °F 97% 29.87 in 0.2 mi Calm Calm - N/A Fog Fog
8:32 AM 54.0 °F - 54.0 °F 100% 29.86 in 0.5 mi Calm Calm - N/A Fog Fog
8:48 AM 55.4 °F - 55.4 °F 100% 29.87 in 1.8 mi WSW 3.5 mph - N/A   Partly Cloudy
8:51 AM 57.2 °F - 55.4 °F 94% 29.87 in 3.0 mi Calm Calm - N/A   Partly Cloudy
8:53 AM 57.0 °F - 55.9 °F 96% 29.87 in 4.0 mi West 3.5 mph - N/A   Partly Cloudy
9:53 AM 62.1 °F - 54.0 °F 75% 29.87 in 10.0 mi WSW 10.4 mph - N/A   Clear
10:53 AM 66.0 °F - 43.0 °F 43% 29.86 in 10.0 mi WSW 13.8 mph - N/A   Clear
11:53 AM 68.0 °F - 37.0 °F 32% 29.84 in 10.0 mi WSW 16.1 mph 21.9 mph N/A   Clear
12:53 PM 70.0 °F - 37.0 °F 30% 29.81 in 10.0 mi WSW 13.8 mph - N/A   Clear
1:53 PM 72.0 °F - 34.0 °F 25% 29.78 in 10.0 mi WSW 12.7 mph - N/A   Clear
2:53 PM 71.1 °F - 33.1 °F 25% 29.77 in 10.0 mi WSW 16.1 mph 21.9 mph N/A   Partly Cloudy
3:53 PM 72.0 °F - 34.0 °F 25% 29.77 in 10.0 mi SW 9.2 mph - N/A   Partly Cloudy
4:53 PM 68.0 °F - 34.0 °F 28% 29.78 in 10.0 mi SW 6.9 mph - N/A   Clear
5:53 PM 64.0 °F - 33.1 °F 31% 29.78 in 10.0 mi SW 5.8 mph - N/A   Clear
6:53 PM 62.1 °F - 34.0 °F 35% 29.80 in 10.0 mi SW 5.8 mph - N/A   Clear
7:53 PM 53.1 °F - 36.0 °F 52% 29.81 in 10.0 mi Calm Calm - N/A   Clear
8:53 PM 53.1 °F - 37.0 °F 55% 29.81 in 10.0 mi Calm Calm - N/A   Clear
9:53 PM 46.9 °F - 39.0 °F 74% 29.82 in 10.0 mi Calm Calm - N/A   Clear
10:53 PM 45.0 °F - 39.0 °F 80% 29.82 in 10.0 mi Calm Calm - N/A   Clear
11:53 PM 43.0 °F 41.3 °F 37.9 °F 82% 29.82 in 10.0 mi ESE 3.5 mph - N/A   Clear